Year,Month,Day,Hour,Minute,Value (Times are PST for temperature in C)
2008,07,12,00,00,12.50
2008,07,12,00,01,12.60
2008,07,12,00,02,12.60
2008,07,12,00,03,12.70
2008,07,12,00,04,12.80
2008,07,12,00,05,12.80
2008,07,12,00,06,12.90
2008,07,12,00,07,13.00
2008,07,12,00,08,13.00
2008,07,12,00,09,13.10
2008,07,12,00,10,13.10
2008,07,12,00,11,13.10
2008,07,12,00,12,13.20
2008,07,12,00,13,13.20
2008,07,12,00,14,13.30
2008,07,12,00,15,13.40
2008,07,12,00,16,13.30
2008,07,12,00,17,13.30
2008,07,12,00,18,13.20
2008,07,12,00,19,13.10
2008,07,12,00,20,13.00
2008,07,12,00,21,12.90
2008,07,12,00,22,12.70
2008,07,12,00,23,12.60
2008,07,12,00,24,12.50
2008,07,12,00,25,12.50
2008,07,12,00,26,12.40
2008,07,12,00,27,12.30
2008,07,12,00,28,12.20
2008,07,12,00,29,12.20
2008,07,12,00,30,12.10
2008,07,12,00,31,12.10
2008,07,12,00,32,12.10
2008,07,12,00,33,12.10
2008,07,12,00,34,12.10
2008,07,12,00,35,12.10
2008,07,12,00,36,12.20
2008,07,12,00,37,12.40
2008,07,12,00,38,12.50
2008,07,12,00,39,12.60
2008,07,12,00,40,12.70
2008,07,12,00,41,12.60
2008,07,12,00,42,12.60
2008,07,12,00,43,12.60
2008,07,12,00,44,12.50
2008,07,12,00,45,12.40
2008,07,12,00,46,12.30
2008,07,12,00,47,12.20
2008,07,12,00,48,12.20
2008,07,12,00,49,12.30
2008,07,12,00,50,12.20
2008,07,12,00,51,12.20
2008,07,12,00,52,12.20
2008,07,12,00,53,12.20
2008,07,12,00,54,12.10
2008,07,12,00,55,12.10
2008,07,12,00,56,12.10
2008,07,12,00,57,12.20
2008,07,12,00,58,12.30
2008,07,12,00,59,12.50
2008,07,12,01,00,12.60
2008,07,12,01,01,12.60
2008,07,12,01,02,12.60
2008,07,12,01,03,12.70
2008,07,12,01,04,12.60
2008,07,12,01,05,12.60
2008,07,12,01,06,12.50
2008,07,12,01,07,12.40
2008,07,12,01,08,12.40
2008,07,12,01,09,12.30
2008,07,12,01,10,12.30
2008,07,12,01,11,12.30
2008,07,12,01,12,12.30
2008,07,12,01,13,12.30
2008,07,12,01,14,12.40
2008,07,12,01,15,12.60
2008,07,12,01,16,12.70
2008,07,12,01,17,12.70
2008,07,12,01,18,12.70
2008,07,12,01,19,12.60
2008,07,12,01,20,12.70
2008,07,12,01,21,12.80
2008,07,12,01,22,12.90
2008,07,12,01,23,13.00
2008,07,12,01,24,13.00
2008,07,12,01,25,12.90
2008,07,12,01,26,12.80
2008,07,12,01,27,12.70
2008,07,12,01,28,12.60
2008,07,12,01,29,12.50
2008,07,12,01,30,12.40
2008,07,12,01,31,12.40
2008,07,12,01,32,12.40
2008,07,12,01,33,12.40
2008,07,12,01,34,12.40
2008,07,12,01,35,12.40
2008,07,12,01,36,12.40
2008,07,12,01,37,12.60
2008,07,12,01,38,12.60
2008,07,12,01,39,12.60
2008,07,12,01,40,12.60
2008,07,12,01,41,12.60
2008,07,12,01,42,12.50
2008,07,12,01,43,12.40
2008,07,12,01,44,12.40
2008,07,12,01,45,12.30
2008,07,12,01,46,12.20
2008,07,12,01,47,12.20
2008,07,12,01,48,12.10
2008,07,12,01,49,12.10
2008,07,12,01,50,12.10
2008,07,12,01,51,12.00
2008,07,12,01,52,12.00
2008,07,12,01,53,12.00
2008,07,12,01,54,12.10
2008,07,12,01,55,12.10
2008,07,12,01,56,12.20
2008,07,12,01,57,12.20
2008,07,12,01,58,12.30
2008,07,12,01,59,12.30
2008,07,12,02,00,12.40
2008,07,12,02,01,12.40
2008,07,12,02,02,12.40
2008,07,12,02,03,12.50
2008,07,12,02,04,12.50
2008,07,12,02,05,12.50
2008,07,12,02,06,12.60
2008,07,12,02,07,12.60
2008,07,12,02,08,12.60
2008,07,12,02,09,12.60
2008,07,12,02,10,12.60
2008,07,12,02,11,12.50
2008,07,12,02,12,12.50
2008,07,12,02,13,12.40
2008,07,12,02,14,12.40
2008,07,12,02,15,12.40
2008,07,12,02,16,12.40
2008,07,12,02,17,12.40
2008,07,12,02,18,12.40
2008,07,12,02,19,12.50
2008,07,12,02,20,12.60
2008,07,12,02,21,12.60
2008,07,12,02,22,12.60
2008,07,12,02,23,12.60
2008,07,12,02,24,12.50
2008,07,12,02,25,12.50
2008,07,12,02,26,12.50
2008,07,12,02,27,12.50
2008,07,12,02,28,12.60
2008,07,12,02,29,12.60
2008,07,12,02,30,12.60
2008,07,12,02,31,12.60
2008,07,12,02,32,12.60
2008,07,12,02,33,12.70
2008,07,12,02,34,12.70
2008,07,12,02,35,12.70
2008,07,12,02,36,12.80
2008,07,12,02,37,12.80
2008,07,12,02,38,12.80
2008,07,12,02,39,12.90
2008,07,12,02,40,12.80
2008,07,12,02,41,12.80
2008,07,12,02,42,12.80
2008,07,12,02,43,12.70
2008,07,12,02,44,12.70
2008,07,12,02,45,12.60
2008,07,12,02,46,12.60
2008,07,12,02,47,12.50
2008,07,12,02,48,12.50
2008,07,12,02,49,12.40
2008,07,12,02,50,12.30
2008,07,12,02,51,12.30
2008,07,12,02,52,12.30
2008,07,12,02,53,12.20
2008,07,12,02,54,12.20
2008,07,12,02,55,12.10
2008,07,12,02,56,12.00
2008,07,12,02,57,12.00
2008,07,12,02,58,12.00
2008,07,12,02,59,12.00
2008,07,12,03,00,11.90
2008,07,12,03,01,11.80
2008,07,12,03,02,11.80
2008,07,12,03,03,11.80
2008,07,12,03,04,11.80
2008,07,12,03,05,11.80
2008,07,12,03,06,11.70
2008,07,12,03,07,11.70
2008,07,12,03,08,11.70
2008,07,12,03,09,11.70
2008,07,12,03,10,11.80
2008,07,12,03,11,11.80
2008,07,12,03,12,11.80
2008,07,12,03,13,11.80
2008,07,12,03,14,11.80
2008,07,12,03,15,11.80
2008,07,12,03,16,11.80
2008,07,12,03,17,11.80
2008,07,12,03,18,11.80
2008,07,12,03,19,11.90
2008,07,12,03,20,11.90
2008,07,12,03,21,11.90
2008,07,12,03,22,11.90
2008,07,12,03,23,11.90
2008,07,12,03,24,11.80
2008,07,12,03,25,11.80
2008,07,12,03,26,11.80
2008,07,12,03,27,11.80
2008,07,12,03,28,11.80
2008,07,12,03,29,11.90
2008,07,12,03,30,11.90
2008,07,12,03,31,11.90
2008,07,12,03,32,11.90
2008,07,12,03,33,11.90
2008,07,12,03,34,11.90
2008,07,12,03,35,11.90
2008,07,12,03,36,11.90
2008,07,12,03,37,11.90
2008,07,12,03,38,11.90
2008,07,12,03,39,11.90
2008,07,12,03,40,12.00
2008,07,12,03,41,11.90
2008,07,12,03,42,11.80
2008,07,12,03,43,11.80
2008,07,12,03,44,11.80
2008,07,12,03,45,11.80
2008,07,12,03,46,11.90
2008,07,12,03,47,11.90
2008,07,12,03,48,12.00
2008,07,12,03,49,12.00
2008,07,12,03,50,12.00
2008,07,12,03,51,12.00
2008,07,12,03,52,12.00
2008,07,12,03,53,12.00
2008,07,12,03,54,12.00
2008,07,12,03,55,11.90
2008,07,12,03,56,11.90
2008,07,12,03,57,11.80
2008,07,12,03,58,11.80
2008,07,12,03,59,11.80
2008,07,12,04,00,11.80
2008,07,12,04,01,11.80
2008,07,12,04,02,11.80
2008,07,12,04,03,11.70
2008,07,12,04,04,11.70
2008,07,12,04,05,11.70
2008,07,12,04,06,11.60
2008,07,12,04,07,11.60
2008,07,12,04,08,11.70
2008,07,12,04,09,11.80
2008,07,12,04,10,11.90
2008,07,12,04,11,12.00
2008,07,12,04,12,12.10
2008,07,12,04,13,12.20
2008,07,12,04,14,12.30
2008,07,12,04,15,12.30
2008,07,12,04,16,12.30
2008,07,12,04,17,12.30
2008,07,12,04,18,12.20
2008,07,12,04,19,12.10
2008,07,12,04,20,12.00
2008,07,12,04,21,11.90
2008,07,12,04,22,11.90
2008,07,12,04,23,11.80
2008,07,12,04,24,11.80
2008,07,12,04,25,11.80
2008,07,12,04,26,11.70
2008,07,12,04,27,11.70
2008,07,12,04,28,11.70
2008,07,12,04,29,11.70
2008,07,12,04,30,11.70
2008,07,12,04,31,11.60
2008,07,12,04,32,11.60
2008,07,12,04,33,11.60
2008,07,12,04,34,11.50
2008,07,12,04,35,11.50
2008,07,12,04,36,11.40
2008,07,12,04,37,11.40
2008,07,12,04,38,11.40
2008,07,12,04,39,11.30
2008,07,12,04,40,11.30
2008,07,12,04,41,11.30
2008,07,12,04,42,11.30
2008,07,12,04,43,11.30
2008,07,12,04,44,11.20
2008,07,12,04,45,11.20
2008,07,12,04,46,11.20
2008,07,12,04,47,11.20
2008,07,12,04,48,11.10
2008,07,12,04,49,11.10
2008,07,12,04,50,11.00
2008,07,12,04,51,10.90
2008,07,12,04,52,10.90
2008,07,12,04,53,10.90
2008,07,12,04,54,10.90
2008,07,12,04,55,10.90
2008,07,12,04,56,10.90
2008,07,12,04,57,10.90
2008,07,12,04,58,11.00
2008,07,12,04,59,11.00
2008,07,12,05,00,11.00
2008,07,12,05,01,11.10
2008,07,12,05,02,11.20
2008,07,12,05,03,11.30
2008,07,12,05,04,11.30
2008,07,12,05,05,11.40
2008,07,12,05,06,11.50
2008,07,12,05,07,11.60
2008,07,12,05,08,11.70
2008,07,12,05,09,11.80
2008,07,12,05,10,11.90
2008,07,12,05,11,12.00
2008,07,12,05,12,12.00
2008,07,12,05,13,11.90
2008,07,12,05,14,11.90
2008,07,12,05,15,11.90
2008,07,12,05,16,11.90
2008,07,12,05,17,11.90
2008,07,12,05,18,11.90
2008,07,12,05,19,12.00
2008,07,12,05,20,12.10
2008,07,12,05,21,12.10
2008,07,12,05,22,12.00
2008,07,12,05,23,12.00
2008,07,12,05,24,11.90
2008,07,12,05,25,11.90
2008,07,12,05,26,12.00
2008,07,12,05,27,12.00
2008,07,12,05,28,12.10
2008,07,12,05,29,12.20
2008,07,12,05,30,12.30
2008,07,12,05,31,12.30
2008,07,12,05,32,12.40
2008,07,12,05,33,12.50
2008,07,12,05,34,12.50
2008,07,12,05,35,12.50
2008,07,12,05,36,12.60
2008,07,12,05,37,12.60
2008,07,12,05,38,12.60
2008,07,12,05,39,12.70
2008,07,12,05,40,12.70
2008,07,12,05,41,12.70
2008,07,12,05,42,12.70
2008,07,12,05,43,12.60
2008,07,12,05,44,12.50
2008,07,12,05,45,12.30
2008,07,12,05,46,12.20
2008,07,12,05,47,12.10
2008,07,12,05,48,11.90
2008,07,12,05,49,11.70
2008,07,12,05,50,11.70
2008,07,12,05,51,11.60
2008,07,12,05,52,11.60
2008,07,12,05,53,11.60
2008,07,12,05,54,11.60
2008,07,12,05,55,11.60
2008,07,12,05,56,11.60
2008,07,12,05,57,11.60
2008,07,12,05,58,11.70
2008,07,12,05,59,11.70
2008,07,12,06,00,11.70
2008,07,12,06,01,11.70
2008,07,12,06,02,11.70
2008,07,12,06,03,11.60
2008,07,12,06,04,11.60
2008,07,12,06,05,11.60
2008,07,12,06,06,11.70
2008,07,12,06,07,11.70
2008,07,12,06,08,11.80
2008,07,12,06,09,11.80
2008,07,12,06,10,11.80
2008,07,12,06,11,11.80
2008,07,12,06,12,11.70
2008,07,12,06,13,11.70
2008,07,12,06,14,11.60
2008,07,12,06,15,11.50
2008,07,12,06,16,11.60
2008,07,12,06,17,11.60
2008,07,12,06,18,11.60
2008,07,12,06,19,11.70
2008,07,12,06,20,11.80
2008,07,12,06,21,11.90
2008,07,12,06,22,12.00
2008,07,12,06,23,12.00
2008,07,12,06,24,12.10
2008,07,12,06,25,12.00
2008,07,12,06,26,12.00
2008,07,12,06,27,12.00
2008,07,12,06,28,12.00
2008,07,12,06,29,12.00
2008,07,12,06,30,12.00
2008,07,12,06,31,12.10
2008,07,12,06,32,12.20
2008,07,12,06,33,12.30
2008,07,12,06,34,12.30
2008,07,12,06,35,12.40
2008,07,12,06,36,12.40
2008,07,12,06,37,12.50
2008,07,12,06,38,12.50
2008,07,12,06,39,12.50
2008,07,12,06,40,12.50
2008,07,12,06,41,12.50
2008,07,12,06,42,12.60
2008,07,12,06,43,12.70
2008,07,12,06,44,12.70
2008,07,12,06,45,12.70
2008,07,12,06,46,12.80
2008,07,12,06,47,12.80
2008,07,12,06,48,12.80
2008,07,12,06,49,12.90
2008,07,12,06,50,13.00
2008,07,12,06,51,13.00
2008,07,12,06,52,13.10
2008,07,12,06,53,13.10
2008,07,12,06,54,13.20
2008,07,12,06,55,13.20
2008,07,12,06,56,13.20
2008,07,12,06,57,13.30
2008,07,12,06,58,13.30
2008,07,12,06,59,13.40
2008,07,12,07,00,13.50
2008,07,12,07,01,13.60
2008,07,12,07,02,13.70
2008,07,12,07,03,13.80
2008,07,12,07,04,13.90
2008,07,12,07,05,14.10
2008,07,12,07,06,14.20
2008,07,12,07,07,14.30
2008,07,12,07,08,14.50
2008,07,12,07,09,14.60
2008,07,12,07,10,14.80
2008,07,12,07,11,14.90
2008,07,12,07,12,15.00
2008,07,12,07,13,15.00
2008,07,12,07,14,15.00
2008,07,12,07,15,15.00
2008,07,12,07,16,15.10
2008,07,12,07,17,15.20
2008,07,12,07,18,15.20
2008,07,12,07,19,15.30
2008,07,12,07,20,15.40
2008,07,12,07,21,15.50
2008,07,12,07,22,15.60
2008,07,12,07,23,15.70
2008,07,12,07,24,15.80
2008,07,12,07,25,15.90
2008,07,12,07,26,16.10
2008,07,12,07,27,16.20
2008,07,12,07,28,16.40
2008,07,12,07,29,16.50
2008,07,12,07,30,16.60
2008,07,12,07,31,16.70
2008,07,12,07,32,16.70
2008,07,12,07,33,16.80
2008,07,12,07,34,16.90
2008,07,12,07,35,17.00
2008,07,12,07,36,17.10
2008,07,12,07,37,17.10
2008,07,12,07,38,17.10
2008,07,12,07,39,17.20
2008,07,12,07,40,17.20
2008,07,12,07,41,17.30
2008,07,12,07,42,17.40
2008,07,12,07,43,17.40
2008,07,12,07,44,17.50
2008,07,12,07,45,17.50
2008,07,12,07,46,17.60
2008,07,12,07,47,17.60
2008,07,12,07,48,17.70
2008,07,12,07,49,17.70
2008,07,12,07,50,17.80
2008,07,12,07,51,17.80
2008,07,12,07,52,17.80
2008,07,12,07,53,17.80
2008,07,12,07,54,17.90
2008,07,12,07,55,17.80
2008,07,12,07,56,17.80
2008,07,12,07,57,17.80
2008,07,12,07,58,17.80
2008,07,12,07,59,17.80
2008,07,12,08,00,17.80
2008,07,12,08,01,17.80
2008,07,12,08,02,17.80
2008,07,12,08,03,17.80
2008,07,12,08,04,17.90
2008,07,12,08,05,17.90
2008,07,12,08,06,17.90
2008,07,12,08,07,17.90
2008,07,12,08,08,17.90
2008,07,12,08,09,17.90
2008,07,12,08,10,18.00
2008,07,12,08,11,18.00
2008,07,12,08,12,18.00
2008,07,12,08,13,18.00
2008,07,12,08,14,18.00
2008,07,12,08,15,18.00
2008,07,12,08,16,18.00
2008,07,12,08,17,18.00
2008,07,12,08,18,17.90
2008,07,12,08,19,17.90
2008,07,12,08,20,17.90
2008,07,12,08,21,17.90
2008,07,12,08,22,18.00
2008,07,12,08,23,18.10
2008,07,12,08,24,18.10
2008,07,12,08,25,18.10
2008,07,12,08,26,18.10
2008,07,12,08,27,18.00
2008,07,12,08,28,18.00
2008,07,12,08,29,18.00
2008,07,12,08,30,18.00
2008,07,12,08,31,18.10
2008,07,12,08,32,18.10
2008,07,12,08,33,18.20
2008,07,12,08,34,18.20
2008,07,12,08,35,18.20
2008,07,12,08,36,18.30
2008,07,12,08,37,18.30
2008,07,12,08,38,18.30
2008,07,12,08,39,18.30
2008,07,12,08,40,18.30
2008,07,12,08,41,18.20
2008,07,12,08,42,18.20
2008,07,12,08,43,18.20
2008,07,12,08,44,18.20
2008,07,12,08,45,18.20
2008,07,12,08,46,18.10
2008,07,12,08,47,18.10
2008,07,12,08,48,18.00
2008,07,12,08,49,18.00
2008,07,12,08,50,18.00
2008,07,12,08,51,18.00
2008,07,12,08,52,17.90
2008,07,12,08,53,17.90
2008,07,12,08,54,18.00
2008,07,12,08,55,18.00
2008,07,12,08,56,18.10
2008,07,12,08,57,18.10
2008,07,12,08,58,18.10
2008,07,12,08,59,18.10
2008,07,12,09,00,18.10
2008,07,12,09,01,18.10
2008,07,12,09,02,18.10
2008,07,12,09,03,18.10
2008,07,12,09,04,18.10
2008,07,12,09,05,18.10
2008,07,12,09,06,18.10
2008,07,12,09,07,18.10
2008,07,12,09,08,18.20
2008,07,12,09,09,18.20
2008,07,12,09,10,18.20
2008,07,12,09,11,18.30
2008,07,12,09,12,18.30
2008,07,12,09,13,18.40
2008,07,12,09,14,18.40
2008,07,12,09,15,18.50
2008,07,12,09,16,18.60
2008,07,12,09,17,18.70
2008,07,12,09,18,18.80
2008,07,12,09,19,18.70
2008,07,12,09,20,18.70
2008,07,12,09,21,18.60
2008,07,12,09,22,18.50
2008,07,12,09,23,18.40
2008,07,12,09,24,18.40
2008,07,12,09,25,18.50
2008,07,12,09,26,18.40
2008,07,12,09,27,18.40
2008,07,12,09,28,18.30
2008,07,12,09,29,18.30
2008,07,12,09,30,18.30
2008,07,12,09,31,18.20
2008,07,12,09,32,18.20
2008,07,12,09,33,18.10
2008,07,12,09,34,18.10
2008,07,12,09,35,18.10
2008,07,12,09,36,18.10
2008,07,12,09,37,18.10
2008,07,12,09,38,18.00
2008,07,12,09,39,18.00
2008,07,12,09,40,18.10
2008,07,12,09,41,18.10
2008,07,12,09,42,18.20
2008,07,12,09,43,18.20
2008,07,12,09,44,18.20
2008,07,12,09,45,18.20
2008,07,12,09,46,18.20
2008,07,12,09,47,18.30
2008,07,12,09,48,18.40
2008,07,12,09,49,18.50
2008,07,12,09,50,18.50
2008,07,12,09,51,18.40
2008,07,12,09,52,18.30
2008,07,12,09,53,18.30
2008,07,12,09,54,18.40
2008,07,12,09,55,18.40
2008,07,12,09,56,18.50
2008,07,12,09,57,18.60
2008,07,12,09,58,18.70
2008,07,12,09,59,18.70
2008,07,12,10,00,18.70
2008,07,12,10,01,18.70
2008,07,12,10,02,18.70
2008,07,12,10,03,18.70
2008,07,12,10,04,18.70
2008,07,12,10,05,18.80
2008,07,12,10,06,18.70
2008,07,12,10,07,18.70
2008,07,12,10,08,18.70
2008,07,12,10,09,18.80
2008,07,12,10,10,18.80
2008,07,12,10,11,18.90
2008,07,12,10,12,18.80
2008,07,12,10,13,18.80
2008,07,12,10,14,18.70
2008,07,12,10,15,18.70
2008,07,12,10,16,18.70
2008,07,12,10,17,18.80
2008,07,12,10,18,18.90
2008,07,12,10,19,18.90
2008,07,12,10,20,18.80
2008,07,12,10,21,18.70
2008,07,12,10,22,18.60
2008,07,12,10,23,18.50
2008,07,12,10,24,18.40
2008,07,12,10,25,18.30
2008,07,12,10,26,18.30
2008,07,12,10,27,18.20
2008,07,12,10,28,18.20
2008,07,12,10,29,18.20
2008,07,12,10,30,18.20
2008,07,12,10,31,18.20
2008,07,12,10,32,18.20
2008,07,12,10,33,18.20
2008,07,12,10,34,18.20
2008,07,12,10,35,18.20
2008,07,12,10,36,18.20
2008,07,12,10,37,18.20
2008,07,12,10,38,18.20
2008,07,12,10,39,18.20
2008,07,12,10,40,18.20
2008,07,12,10,41,18.40
2008,07,12,10,42,18.50
2008,07,12,10,43,18.50
2008,07,12,10,44,18.60
2008,07,12,10,45,18.60
2008,07,12,10,46,18.60
2008,07,12,10,47,18.50
2008,07,12,10,48,18.30
2008,07,12,10,49,18.20
2008,07,12,10,50,18.20
2008,07,12,10,51,18.10
2008,07,12,10,52,18.10
2008,07,12,10,53,18.20
2008,07,12,10,54,18.20
2008,07,12,10,55,18.30
2008,07,12,10,56,18.40
2008,07,12,10,57,18.50
2008,07,12,10,58,18.60
2008,07,12,10,59,18.60
2008,07,12,11,00,18.70
2008,07,12,11,01,18.70
2008,07,12,11,02,18.70
2008,07,12,11,03,18.70
2008,07,12,11,04,18.60
2008,07,12,11,05,18.60
2008,07,12,11,06,18.50
2008,07,12,11,07,18.50
2008,07,12,11,08,18.40
2008,07,12,11,09,18.40
2008,07,12,11,10,18.50
2008,07,12,11,11,18.50
2008,07,12,11,12,18.50
2008,07,12,11,13,18.60
2008,07,12,11,14,18.60
2008,07,12,11,15,18.70
2008,07,12,11,16,18.70
2008,07,12,11,17,18.70
2008,07,12,11,18,18.80
2008,07,12,11,19,18.80
2008,07,12,11,20,18.70
2008,07,12,11,21,18.60
2008,07,12,11,22,18.50
2008,07,12,11,23,18.50
2008,07,12,11,24,18.50
2008,07,12,11,25,18.50
2008,07,12,11,26,18.50
2008,07,12,11,27,18.50
2008,07,12,11,28,18.60
2008,07,12,11,29,18.70
2008,07,12,11,30,18.80
2008,07,12,11,31,18.80
2008,07,12,11,32,18.90
2008,07,12,11,33,18.90
2008,07,12,11,34,18.90
2008,07,12,11,35,19.00
2008,07,12,11,36,19.00
2008,07,12,11,37,19.10
2008,07,12,11,38,19.10
2008,07,12,11,39,19.10
2008,07,12,11,40,19.10
2008,07,12,11,41,19.20
2008,07,12,11,42,19.20
2008,07,12,11,43,19.30
2008,07,12,11,44,19.40
2008,07,12,11,45,19.40
2008,07,12,11,46,19.50
2008,07,12,11,47,19.50
2008,07,12,11,48,19.50
2008,07,12,11,49,19.50
2008,07,12,11,50,19.60
2008,07,12,11,51,19.60
2008,07,12,11,52,19.60
2008,07,12,11,53,19.60
2008,07,12,11,54,19.70
2008,07,12,11,55,19.70
2008,07,12,11,56,19.80
2008,07,12,11,57,19.90
2008,07,12,11,58,20.00
2008,07,12,11,59,20.10
2008,07,12,12,00,20.20
2008,07,12,12,01,20.20
2008,07,12,12,02,20.20
2008,07,12,12,03,20.20
2008,07,12,12,04,20.10
2008,07,12,12,05,20.00
2008,07,12,12,06,19.90
2008,07,12,12,07,19.90
2008,07,12,12,08,19.90
2008,07,12,12,09,19.90
2008,07,12,12,10,20.00
2008,07,12,12,11,20.10
2008,07,12,12,12,20.20
2008,07,12,12,13,20.30
2008,07,12,12,14,20.30
2008,07,12,12,15,20.30
2008,07,12,12,16,20.30
2008,07,12,12,17,20.30
2008,07,12,12,18,20.20
2008,07,12,12,19,20.30
2008,07,12,12,20,20.30
2008,07,12,12,21,20.40
2008,07,12,12,22,20.50
2008,07,12,12,23,20.50
2008,07,12,12,24,20.50
2008,07,12,12,25,20.50
2008,07,12,12,26,20.60
2008,07,12,12,27,20.60
2008,07,12,12,28,20.70
2008,07,12,12,29,20.80
2008,07,12,12,30,20.80
2008,07,12,12,31,20.80
2008,07,12,12,32,20.80
2008,07,12,12,33,20.70
2008,07,12,12,34,20.60
2008,07,12,12,35,20.60
2008,07,12,12,36,20.50
2008,07,12,12,37,20.40
2008,07,12,12,38,20.40
2008,07,12,12,39,20.40
2008,07,12,12,40,20.50
2008,07,12,12,41,20.70
2008,07,12,12,42,20.80
2008,07,12,12,43,20.80
2008,07,12,12,44,20.80
2008,07,12,12,45,20.80
2008,07,12,12,46,20.70
2008,07,12,12,47,20.60
2008,07,12,12,48,20.60
2008,07,12,12,49,20.50
2008,07,12,12,50,20.50
2008,07,12,12,51,20.50
2008,07,12,12,52,20.50
2008,07,12,12,53,20.50
2008,07,12,12,54,20.50
2008,07,12,12,55,20.50
2008,07,12,12,56,20.50
2008,07,12,12,57,20.60
2008,07,12,12,58,20.60
2008,07,12,12,59,20.60
2008,07,12,13,00,20.60
2008,07,12,13,01,20.60
2008,07,12,13,02,20.60
2008,07,12,13,03,20.50
2008,07,12,13,04,20.50
2008,07,12,13,05,20.50
2008,07,12,13,06,20.50
2008,07,12,13,07,20.50
2008,07,12,13,08,20.60
2008,07,12,13,09,20.60
2008,07,12,13,10,20.60
2008,07,12,13,11,20.60
2008,07,12,13,12,20.60
2008,07,12,13,13,20.60
2008,07,12,13,14,20.60
2008,07,12,13,15,20.70
2008,07,12,13,16,20.70
2008,07,12,13,17,20.70
2008,07,12,13,18,20.70
2008,07,12,13,19,20.70
2008,07,12,13,20,20.70
2008,07,12,13,21,20.70
2008,07,12,13,22,20.70
2008,07,12,13,23,20.70
2008,07,12,13,24,20.70
2008,07,12,13,25,20.70
2008,07,12,13,26,20.60
2008,07,12,13,27,20.60
2008,07,12,13,28,20.60
2008,07,12,13,29,20.70
2008,07,12,13,30,20.80
2008,07,12,13,31,20.90
2008,07,12,13,32,21.00
2008,07,12,13,33,21.10
2008,07,12,13,34,21.00
2008,07,12,13,35,21.00
2008,07,12,13,36,20.90
2008,07,12,13,37,21.00
2008,07,12,13,38,21.00
2008,07,12,13,39,21.00
2008,07,12,13,40,21.00
2008,07,12,13,41,21.10
2008,07,12,13,42,21.20
2008,07,12,13,43,21.30
2008,07,12,13,44,21.40
2008,07,12,13,45,21.50
2008,07,12,13,46,21.50
2008,07,12,13,47,21.50
2008,07,12,13,48,21.50
2008,07,12,13,49,21.60
2008,07,12,13,50,21.60
2008,07,12,13,51,21.50
2008,07,12,13,52,21.50
2008,07,12,13,53,21.50
2008,07,12,13,54,21.40
2008,07,12,13,55,21.40
2008,07,12,13,56,21.40
2008,07,12,13,57,21.50
2008,07,12,13,58,21.50
2008,07,12,13,59,21.40
2008,07,12,14,00,21.40
2008,07,12,14,01,21.40
2008,07,12,14,02,21.50
2008,07,12,14,03,21.60
2008,07,12,14,04,21.60
2008,07,12,14,05,21.70
2008,07,12,14,06,21.70
2008,07,12,14,07,21.80
2008,07,12,14,08,21.80
2008,07,12,14,09,21.80
2008,07,12,14,10,21.80
2008,07,12,14,11,21.80
2008,07,12,14,12,21.80
2008,07,12,14,13,21.70
2008,07,12,14,14,21.60
2008,07,12,14,15,21.60
2008,07,12,14,16,21.50
2008,07,12,14,17,21.40
2008,07,12,14,18,21.50
2008,07,12,14,19,21.60
2008,07,12,14,20,21.70
2008,07,12,14,21,21.80
2008,07,12,14,22,21.90
2008,07,12,14,23,22.00
2008,07,12,14,24,22.00
2008,07,12,14,25,22.10
2008,07,12,14,26,22.10
2008,07,12,14,27,22.10
2008,07,12,14,28,22.10
2008,07,12,14,29,22.20
2008,07,12,14,30,22.30
2008,07,12,14,31,22.30
2008,07,12,14,32,22.30
2008,07,12,14,33,22.40
2008,07,12,14,34,22.40
2008,07,12,14,35,22.50
2008,07,12,14,36,22.50
2008,07,12,14,37,22.40
2008,07,12,14,38,22.30
2008,07,12,14,39,22.20
2008,07,12,14,40,22.20
2008,07,12,14,41,22.20
2008,07,12,14,42,22.10
2008,07,12,14,43,22.00
2008,07,12,14,44,22.00
2008,07,12,14,45,22.10
2008,07,12,14,46,22.20
2008,07,12,14,47,22.30
2008,07,12,14,48,22.40
2008,07,12,14,49,22.40
2008,07,12,14,50,22.50
2008,07,12,14,51,22.60
2008,07,12,14,52,22.60
2008,07,12,14,53,22.60
2008,07,12,14,54,22.60
2008,07,12,14,55,22.70
2008,07,12,14,56,22.80
2008,07,12,14,57,22.90
2008,07,12,14,58,23.00
2008,07,12,14,59,23.10
2008,07,12,15,00,23.10
2008,07,12,15,01,23.20
2008,07,12,15,02,23.20
2008,07,12,15,03,23.20
2008,07,12,15,04,23.40
2008,07,12,15,05,23.60
2008,07,12,15,06,23.70
2008,07,12,15,07,23.80
2008,07,12,15,08,23.90
2008,07,12,15,09,23.90
2008,07,12,15,10,24.00
2008,07,12,15,11,24.10
2008,07,12,15,12,24.20
2008,07,12,15,13,24.20
2008,07,12,15,14,24.20
2008,07,12,15,15,24.30
2008,07,12,15,16,24.30
2008,07,12,15,17,24.20
2008,07,12,15,18,24.30
2008,07,12,15,19,24.30
2008,07,12,15,20,24.30
2008,07,12,15,21,24.30
2008,07,12,15,22,24.30
2008,07,12,15,23,24.30
2008,07,12,15,24,24.30
2008,07,12,15,25,24.40
2008,07,12,15,26,24.40
2008,07,12,15,27,24.40
2008,07,12,15,28,24.40
2008,07,12,15,29,24.50
2008,07,12,15,30,24.60
2008,07,12,15,31,24.60
2008,07,12,15,32,24.60
2008,07,12,15,33,24.60
2008,07,12,15,34,24.60
2008,07,12,15,35,24.50
2008,07,12,15,36,24.40
2008,07,12,15,37,24.40
2008,07,12,15,38,24.40
2008,07,12,15,39,24.50
2008,07,12,15,40,24.50
2008,07,12,15,41,24.40
2008,07,12,15,42,24.40
2008,07,12,15,43,24.40
2008,07,12,15,44,24.50
2008,07,12,15,45,24.60
2008,07,12,15,46,24.60
2008,07,12,15,47,24.70
2008,07,12,15,48,24.90
2008,07,12,15,49,24.90
2008,07,12,15,50,24.90
2008,07,12,15,51,24.90
2008,07,12,15,52,24.90
2008,07,12,15,53,24.90
2008,07,12,15,54,24.90
2008,07,12,15,55,24.90
2008,07,12,15,56,24.90
2008,07,12,15,57,24.90
2008,07,12,15,58,24.80
2008,07,12,15,59,24.90
2008,07,12,16,00,24.90
2008,07,12,16,01,24.90
2008,07,12,16,02,24.90
2008,07,12,16,03,24.80
2008,07,12,16,04,24.80
2008,07,12,16,05,24.70
2008,07,12,16,06,24.60
2008,07,12,16,07,24.60
2008,07,12,16,08,24.60
2008,07,12,16,09,24.50
2008,07,12,16,10,24.50
2008,07,12,16,11,24.40
2008,07,12,16,12,24.40
2008,07,12,16,13,24.40
2008,07,12,16,14,24.40
2008,07,12,16,15,24.40
2008,07,12,16,16,24.30
2008,07,12,16,17,24.20
2008,07,12,16,18,24.10
2008,07,12,16,19,24.10
2008,07,12,16,20,24.10
2008,07,12,16,21,24.00
2008,07,12,16,22,23.90
2008,07,12,16,23,23.90
2008,07,12,16,24,23.80
2008,07,12,16,25,23.90
2008,07,12,16,26,23.90
2008,07,12,16,27,24.00
2008,07,12,16,28,24.10
2008,07,12,16,29,24.20
2008,07,12,16,30,24.30
2008,07,12,16,31,24.30
2008,07,12,16,32,24.30
2008,07,12,16,33,24.40
2008,07,12,16,34,24.50
2008,07,12,16,35,24.50
2008,07,12,16,36,24.70
2008,07,12,16,37,24.80
2008,07,12,16,38,24.90
2008,07,12,16,39,25.00
2008,07,12,16,40,25.10
2008,07,12,16,41,25.10
2008,07,12,16,42,25.10
2008,07,12,16,43,25.20
2008,07,12,16,44,25.20
2008,07,12,16,45,25.20
2008,07,12,16,46,25.20
2008,07,12,16,47,25.20
2008,07,12,16,48,25.20
2008,07,12,16,49,25.30
2008,07,12,16,50,25.30
2008,07,12,16,51,25.40
2008,07,12,16,52,25.50
2008,07,12,16,53,25.60
2008,07,12,16,54,25.80
2008,07,12,16,55,25.90
2008,07,12,16,56,25.90
2008,07,12,16,57,25.90
2008,07,12,16,58,25.90
2008,07,12,16,59,25.90
2008,07,12,17,00,25.90
2008,07,12,17,01,25.90
2008,07,12,17,02,25.90
2008,07,12,17,03,25.90
2008,07,12,17,04,25.80
2008,07,12,17,05,25.80
2008,07,12,17,06,25.70
2008,07,12,17,07,25.50
2008,07,12,17,08,25.40
2008,07,12,17,09,25.40
2008,07,12,17,10,25.30
2008,07,12,17,11,25.20
2008,07,12,17,12,25.10
2008,07,12,17,13,25.10
2008,07,12,17,14,25.10
2008,07,12,17,15,25.10
2008,07,12,17,16,25.20
2008,07,12,17,17,25.20
2008,07,12,17,18,25.20
2008,07,12,17,19,25.20